[[{"header":{"parameterUnit":"m.s-1","parameterCategory":2,"la1":30.2991,"la2":30.254,"lo1":-89.0895,"lo2":-89.0444,"dy":0.0017,"dx":0.0017,"nx":28,"ny":28,"refTime":"2024-10-22T03:00:00:Z","depth":"0","parameterNumber":2,"parameterNumberName":"U-component_of_CURRENTS"},"data":[0,0,0,0,0,0,0,0,0,0,0,0,0,0,0,0,0,0,0,0,0,0,0,0,0,0,0,0,0,0,0,0,0,0,0,0,0,0,0,0,0,0,0,0,0,0,0,0,0,0,0,0,0,0,0,0,0,0,0.1931,0.1931,0,0.1976,0.1977,0.1977,0.198,0.1979,0.1979,0.1979,0.1964,0.1964,0.1964,0,0,0,0,0,0,0,0,0,0,0,0,0,0.1844,0.1845,0.1931,0.1931,0.1932,0.1976,0.1977,0.1977,0.198,0.1979,0.1979,0.1979,0.1964,0.1964,0.1964,0,0,0,0,0,0,0,0,0,0,0,0,0,0.1882,0.1846,0.193,0.1941,0.1942,0.1976,0.1977,0.1977,0.198,0.1979,0.1979,0.1978,0.1964,0.1964,0.1964,0.1972,0,0,0.1964,0.1963,0,0,0,0,0,0,0,0,0.188,0.1885,0.1938,0.194,0.1942,0.1974,0.1941,0.1973,0.198,0.1963,0.1979,0.1978,0.1964,0.1964,0.1971,0.1972,0.1971,0.1964,0.1963,0.1963,0.1963,0,0,0,0,0,0,0,0.1878,0.1883,0.1946,0.1939,0.1941,0.1942,0.1947,0.1947,0.1963,0.1965,0.1965,0.1974,0.1964,0.1971,0.197,0.1971,0.1964,0.1963,0.1963,0.1963,0.2001,0.2002,0,0,0,0,0,0,0.1878,0.1881,0.1945,0.1948,0.1912,0.1944,0.1949,0.1962,0.1964,0.1965,0.1975,0.1974,0.1971,0.1971,0.197,0.2001,0.1963,0.1963,0.1963,0.2,0.2001,0.2002,0,0,0,0,0,0,0.1875,0.1883,0.1943,0.1917,0.1925,0.1946,0.1961,0.1963,0.1973,0.1973,0.1972,0.1982,0.1971,0.197,0.1982,0.2,0.1963,0.1963,0.1999,0.2,0.2002,0.2051,0,0,0,0,0,0,0.1873,0.1882,0.1889,0.1917,0.1927,0.197,0.1961,0.1965,0.198,0.198,0.1978,0.1977,0.1971,0.1982,0.1982,0.1999,0.1963,0.1997,0.1999,0.2001,0.2048,0.2054,0.2059,0,0,0,0,0,0.187,0.1883,0.1889,0.1897,0.1936,0.1971,0.1976,0.1987,0.1981,0.1992,0.1994,0.1977,0.1995,0.1983,0.1982,0.2,0.1996,0.1999,0.2001,0.2045,0.2052,0.2059,0,0,0,0,0,0,0.1845,0.1885,0.1893,0.1916,0.1945,0.1972,0.1984,0.1991,0.2002,0.1999,0.1991,0.199,0.2009,0.1998,0.1986,0.2018,0.1993,0.1995,0.2026,0.2033,0.2039,0.2044,0.1963,0,0,0,0,0,0.1845,0.1866,0.1903,0.1921,0.1938,0.1961,0.1974,0.1986,0.2001,0.2006,0.2007,0.2008,0.2019,0.202,0.2027,0.2041,0.2049,0.2052,0.2058,0.2062,0.2067,0.2092,0.2101,0.201,0.201,0.201,0,0,0.1839,0.1865,0.1875,0.1918,0.1939,0.197,0.1967,0.1995,0.2018,0.2001,0.2026,0.2029,0.2029,0.2052,0.2058,0.2043,0.2098,0.2066,0.207,0.2072,0.2096,0.2104,0.2112,0.2012,0.2012,0.2011,0,0,0.1844,0.1864,0.1887,0.1916,0.1956,0.1976,0.1985,0.2019,0.2031,0.2058,0.2056,0.2072,0.2081,0.2092,0.2096,0.2135,0.2129,0.2134,0.2163,0.2188,0.2195,0.2202,0.2246,0.2256,0.2133,0.2133,0.2133,0,0.1833,0.1872,0.1898,0.1931,0.1956,0.198,0.2011,0.2033,0.2065,0.2081,0.207,0.2106,0.2103,0.2137,0.2153,0.2148,0.2166,0.2137,0.2195,0.2202,0.2208,0.2251,0.2261,0.2136,0.2136,0.2135,0.2135,0,0.1863,0.1893,0.191,0.1961,0.199,0.2022,0.2061,0.2087,0.2101,0.2122,0.2159,0.2163,0.2183,0.2187,0.2181,0.2225,0.2228,0.2203,0.2178,0.222,0.2263,0.2273,0.214,0.2139,0.2138,0.2137,0,0,0.1837,0.1915,0.192,0.1947,0.201,0.2034,0.2083,0.2134,0.2159,0.2189,0.2227,0.225,0.2251,0.2257,0.2254,0.2272,0.2336,0.2257,0.2257,0.23,0.2411,0.2508,0.2528,0.232,0.2322,0.2323,0.2432,0,0.1851,0.1912,0.195,0.2001,0.2037,0.208,0.2118,0.2165,0.2198,0.2239,0.2263,0.2292,0.2278,0.2287,0.2309,0.2329,0.2361,0.231,0.2363,0.2365,0.2446,0.2542,0.2533,0.2638,0.2441,0.2443,0.2444,0,0.1865,0.1908,0.1963,0.2025,0.2042,0.2071,0.2136,0.2172,0.2241,0.2268,0.2312,0.2335,0.2388,0.2354,0.2425,0.2393,0.2411,0.2421,0.2425,0.2503,0.2481,0.2559,0.2663,0.2569,0.246,0.2458,0.2457,0,0.1834,0.1909,0.1951,0.1975,0.2052,0.2077,0.211,0.2177,0.2222,0.2286,0.2335,0.2385,0.2424,0.2453,0.2512,0.2463,0.2597,0.2524,0.2632,0.2639,0.2638,0.2643,0.2656,0.2575,0.2575,0.2574,0.2574,0,0.1833,0.1861,0.1935,0.1957,0.1993,0.2051,0.2096,0.2134,0.222,0.2283,0.234,0.242,0.2449,0.2541,0.2555,0.2671,0.2641,0.2674,0.2686,0.2659,0.2665,0.2586,0.252,0.2578,0.2577,0.2577,0.2576,0,0.1791,0.1845,0.1887,0.1962,0.198,0.1999,0.2088,0.2127,0.2208,0.2299,0.2332,0.2466,0.2599,0.2667,0.2738,0.275,0.2765,0.2863,0.2853,0.2864,0.2855,0.2793,0.2739,0.2639,0.2982,0.2985,0.2988,0,0.1775,0.1799,0.1869,0.1889,0.1919,0.1967,0.2004,0.2098,0.2153,0.2341,0.2387,0.2569,0.2689,0.2885,0.2968,0.3065,0.2906,0.3085,0.2984,0.2899,0.2836,0.2669,0.2572,0.2998,0.3001,0.3003,0.3005,0,0.1735,0.176,0.1789,0.1838,0.1874,0.1924,0.1985,0.2033,0.2159,0.2262,0.2419,0.2542,0.2811,0.2947,0.313,0.3176,0.2956,0.3133,0.3027,0.2863,0.2696,0.2591,0.2887,0.3024,0.3022,0.302,0.3019,0.3018,0.1683,0.1692,0.1733,0.1771,0.1809,0.1848,0.1863,0.1953,0.2042,0.2175,0.2364,0.2535,0.2852,0.3133,0.3161,0.3241,0.3109,0.3149,0.3088,0.293,0.2813,0.3189,0.335,0.335,0.335,0.335,0.335,0,0.1627,0.1642,0.1669,0.1699,0.1712,0.1769,0.1826,0.1838,0.1896,0.2099,0.2238,0.2591,0.2832,0.3056,0.3286,0.3186,0.2982,0.3095,0.2811,0.2716,0.3058,0.304,0.3163,0.3163,0.3163,0.3163,0.3164,0.3164,0.1594,0.1595,0.1616,0.1597,0.1617,0.1617,0.1632,0.1658,0.177,0.1953,0.2155,0.2364,0.2781,0.3151,0.3193,0.3111,0.2764,0.2729,0.2592,0.2808,0.2805,0.2801,0.2767,0.2831,0.2831,0.216,0.2155,0.2151]},{"header":{"parameterUnit":"m.s-1","parameterCategory":2,"la1":30.2991,"la2":30.254,"lo1":-89.0895,"lo2":-89.0444,"dy":0.0017,"dx":0.0017,"nx":28,"ny":28,"refTime":"2024-10-22T03:00:00:Z","depth":"0","parameterNumber":3,"parameterNumberName":"V-component_of_CURRENTS"},"data":[0,0,0,0,0,0,0,0,0,0,0,0,0,0,0,0,0,0,0,0,0,0,0,0,0,0,0,0,0,0,0,0,0,0,0,0,0,0,0,0,0,0,0,0,0,0,0,0,0,0,0,0,0,0,0,0,0,0,-0.0415,-0.0416,0,-0.0461,-0.0462,-0.0463,-0.05,-0.05,-0.0501,-0.0501,-0.0538,-0.0539,-0.054,0,0,0,0,0,0,0,0,0,0,0,0,0,-0.0409,-0.0409,-0.0415,-0.0416,-0.0416,-0.0461,-0.0462,-0.0463,-0.05,-0.05,-0.0501,-0.0501,-0.0538,-0.0539,-0.054,0,0,0,0,0,0,0,0,0,0,0,0,0,-0.043,-0.0409,-0.0415,-0.0439,-0.0441,-0.0461,-0.0462,-0.0463,-0.05,-0.05,-0.0501,-0.0501,-0.0538,-0.0539,-0.054,-0.054,0,0,-0.0544,-0.0544,0,0,0,0,0,0,0,0,-0.0429,-0.0431,-0.0435,-0.0437,-0.044,-0.0474,-0.0474,-0.0488,-0.05,-0.0479,-0.0501,-0.0501,-0.0515,-0.0518,-0.0528,-0.0542,-0.0543,-0.0544,-0.0544,-0.0545,-0.0545,0,0,0,0,0,0,0,-0.0427,-0.0429,-0.0435,-0.0435,-0.0438,-0.0464,-0.0467,-0.0477,-0.0496,-0.0481,-0.0484,-0.0486,-0.0516,-0.0527,-0.0529,-0.0544,-0.0544,-0.0545,-0.0545,-0.0546,-0.0586,-0.0587,0,0,0,0,0,0,-0.0415,-0.0427,-0.0434,-0.0436,-0.0433,-0.0464,-0.0467,-0.0464,-0.0496,-0.0501,-0.0486,-0.0488,-0.0525,-0.0528,-0.0531,-0.0555,-0.0545,-0.0546,-0.0547,-0.0586,-0.0586,-0.0587,0,0,0,0,0,0,-0.0415,-0.0415,-0.0432,-0.0432,-0.0436,-0.0463,-0.0459,-0.0465,-0.0475,-0.0499,-0.0504,-0.049,-0.0525,-0.0529,-0.0544,-0.0556,-0.0546,-0.0547,-0.0585,-0.0586,-0.0586,-0.0589,0,0,0,0,0,0,-0.0414,-0.0415,-0.0409,-0.0431,-0.0435,-0.044,-0.0459,-0.0465,-0.0475,-0.0478,-0.0504,-0.0508,-0.0526,-0.0542,-0.0545,-0.0557,-0.0548,-0.0585,-0.0586,-0.0586,-0.0588,-0.0589,-0.059,0,0,0,0,0,-0.0414,-0.0399,-0.0408,-0.0409,-0.0426,-0.0439,-0.0444,-0.0466,-0.0475,-0.0477,-0.05,-0.0507,-0.0549,-0.0543,-0.0546,-0.0559,-0.0585,-0.0585,-0.0586,-0.0588,-0.0589,-0.059,0,0,0,0,0,0,-0.0389,-0.0402,-0.0412,-0.0401,-0.0419,-0.0445,-0.0445,-0.0462,-0.0482,-0.0483,-0.0509,-0.0514,-0.0535,-0.0542,-0.0535,-0.0573,-0.0569,-0.0571,-0.0569,-0.0571,-0.0572,-0.0568,-0.0549,0,0,0,0,0,-0.0381,-0.0375,-0.0396,-0.0387,-0.0393,-0.0419,-0.0427,-0.0443,-0.0463,-0.0472,-0.0492,-0.0515,-0.0541,-0.0551,-0.057,-0.0584,-0.0597,-0.0595,-0.0596,-0.0597,-0.0597,-0.0636,-0.0641,-0.0589,-0.0589,-0.0589,0,0,-0.0367,-0.0374,-0.0371,-0.0382,-0.0396,-0.0404,-0.0425,-0.0432,-0.0446,-0.0471,-0.0491,-0.0516,-0.0545,-0.057,-0.0579,-0.0577,-0.0616,-0.0598,-0.0599,-0.0598,-0.0638,-0.0643,-0.0647,-0.059,-0.059,-0.059,0,0,-0.034,-0.0345,-0.0335,-0.0348,-0.0366,-0.0386,-0.0386,-0.0412,-0.0432,-0.0452,-0.0482,-0.0515,-0.0539,-0.0575,-0.0594,-0.0609,-0.0621,-0.0612,-0.0615,-0.0653,-0.0658,-0.0662,-0.0674,-0.068,-0.0612,-0.0612,-0.0612,0,-0.0323,-0.0316,-0.0335,-0.0334,-0.0342,-0.0375,-0.0374,-0.0399,-0.043,-0.0448,-0.0454,-0.052,-0.0546,-0.0593,-0.0607,-0.0613,-0.0625,-0.0608,-0.0655,-0.0659,-0.0664,-0.0675,-0.0681,-0.0612,-0.0612,-0.0612,-0.0612,0,-0.0297,-0.0293,-0.0287,-0.03,-0.0314,-0.0314,-0.0352,-0.0371,-0.0396,-0.0427,-0.0473,-0.0518,-0.0556,-0.0577,-0.0599,-0.0647,-0.0642,-0.0652,-0.0651,-0.0669,-0.068,-0.0686,-0.0612,-0.0612,-0.0612,-0.0612,0,0,-0.0246,-0.0264,-0.0261,-0.0262,-0.0295,-0.0299,-0.0328,-0.0363,-0.0371,-0.0426,-0.0447,-0.0523,-0.055,-0.0574,-0.0611,-0.0655,-0.0701,-0.0666,-0.0668,-0.0677,-0.0768,-0.0698,-0.0698,-0.0721,-0.0722,-0.0723,-0.0759,0,-0.0218,-0.0205,-0.0229,-0.0223,-0.022,-0.0264,-0.0282,-0.0322,-0.0357,-0.0385,-0.0463,-0.0489,-0.0548,-0.0557,-0.0621,-0.0672,-0.0719,-0.0689,-0.075,-0.0751,-0.0688,-0.0704,-0.063,-0.065,-0.0765,-0.0766,-0.0766,0,-0.0184,-0.018,-0.0167,-0.018,-0.0182,-0.0188,-0.0217,-0.0238,-0.0301,-0.0326,-0.039,-0.0434,-0.0515,-0.0549,-0.0674,-0.065,-0.0713,-0.076,-0.0762,-0.0702,-0.0694,-0.0654,-0.0657,-0.083,-0.0776,-0.0775,-0.0775,0,-0.0135,-0.0136,-0.0123,-0.0128,-0.015,-0.0155,-0.0171,-0.0219,-0.0214,-0.0283,-0.0269,-0.0393,-0.0406,-0.0535,-0.0629,-0.0656,-0.074,-0.0788,-0.079,-0.0785,-0.0735,-0.0723,-0.0911,-0.0881,-0.0881,-0.0881,-0.0881,0,-0.0097,-0.0082,-0.0095,-0.0085,-0.006,-0.0102,-0.0082,-0.0117,-0.0136,-0.0091,-0.0225,-0.0189,-0.04,-0.0463,-0.06,-0.0688,-0.0719,-0.0789,-0.0794,-0.073,-0.0718,-0.0874,-0.0976,-0.0882,-0.0882,-0.0881,-0.0881,0,-0.0045,-0.0057,-0.0033,-0.004,-0.0034,-0.0017,0.0,0.0027,-0.0008,0.0052,0.0047,-0.0032,-0.0099,-0.0288,-0.0458,-0.0597,-0.0791,-0.0744,-0.0638,-0.0629,-0.081,-0.0912,-0.1079,-0.114,-0.078,-0.0779,-0.0777,0,-0.0019,-0.0,0.002,0.0052,0.0055,0.008,0.0116,0.0092,0.0145,0.0189,0.0248,0.0197,0.022,-0.0018,-0.0268,-0.0492,-0.0689,-0.0603,-0.066,-0.0809,-0.0928,-0.1016,-0.1064,-0.0598,-0.0595,-0.0593,-0.0592,0,0.0043,0.0051,0.0077,0.015,0.0196,0.0247,0.0304,0.0378,0.04,0.049,0.0624,0.065,0.0443,0.0281,-0.0051,-0.0244,-0.0701,-0.0565,-0.0765,-0.0836,-0.09,-0.0961,-0.0578,-0.0573,-0.0574,-0.0576,-0.0577,-0.0578,0.0103,0.0144,0.0196,0.0268,0.0327,0.0435,0.0533,0.0631,0.0784,0.0969,0.0957,0.1078,0.0765,0.0345,0.0037,-0.0486,-0.0537,-0.0654,-0.0773,-0.0855,-0.0899,-0.0451,-0.0419,-0.042,-0.0421,-0.0422,-0.0422,0,0.0206,0.0252,0.0319,0.0418,0.052,0.0522,0.0688,0.0829,0.1081,0.1239,0.1393,0.1382,0.0971,0.0463,-0.0221,-0.0618,-0.0818,-0.0866,-0.1017,-0.1064,-0.07,-0.0675,-0.064,-0.064,-0.064,-0.0639,-0.0639,-0.0639,0.0269,0.0367,0.0403,0.0588,0.0664,0.0853,0.0978,0.1189,0.1357,0.1639,0.1768,0.1817,0.145,0.0193,-0.071,-0.0934,-0.126,-0.1289,-0.1477,-0.1274,-0.1265,-0.1257,-0.1262,-0.135,-0.1351,-0.1772,-0.1777,-0.178]}],[{"header":{"parameterUnit":"m.s-1","parameterCategory":2,"la1":30.2991,"la2":30.254,"lo1":-89.0895,"lo2":-89.0444,"dy":0.0017,"dx":0.0017,"nx":28,"ny":28,"refTime":"2024-10-22T03:00:00:Z","depth":"2","parameterNumber":2,"parameterNumberName":"U-component_of_CURRENTS"},"data":[0,0,0,0,0,0,0,0,0,0,0,0,0,0,0,0,0,0,0,0,0,0,0,0,0,0,0,0,0,0,0,0,0,0,0,0,0,0,0,0,0,0,0,0,0,0,0,0,0,0,0,0,0,0,0,0,0,0,0.1818,0.1819,0,0.1858,0.1859,0.1859,0.1871,0.187,0.187,0.187,0.1868,0.1869,0.1869,0,0,0,0,0,0,0,0,0,0,0,0,0,0.1753,0.1754,0.1818,0.1819,0.1819,0.1858,0.1859,0.1859,0.1871,0.187,0.187,0.187,0.1868,0.1869,0.1869,0,0,0,0,0,0,0,0,0,0,0,0,0,0.1785,0.1754,0.1818,0.183,0.1832,0.1858,0.1859,0.1859,0.1871,0.187,0.187,0.187,0.1868,0.1869,0.1869,0.1875,0,0,0.1869,0.1869,0,0,0,0,0,0,0,0,0.1783,0.1788,0.1828,0.1829,0.1831,0.186,0.1835,0.1863,0.1871,0.1855,0.187,0.187,0.1862,0.1863,0.1871,0.1875,0.1875,0.1869,0.1869,0.1869,0.1869,0,0,0,0,0,0,0,0.1781,0.1786,0.1834,0.1828,0.1831,0.1834,0.1838,0.1841,0.1858,0.1857,0.1858,0.1863,0.1863,0.1871,0.1871,0.1875,0.1869,0.1869,0.187,0.187,0.192,0.1921,0,0,0,0,0,0,0.1778,0.1784,0.1832,0.1835,0.1807,0.1835,0.184,0.185,0.1859,0.1861,0.1863,0.1863,0.187,0.1871,0.1871,0.1923,0.1869,0.187,0.187,0.1919,0.192,0.1922,0,0,0,0,0,0,0.1776,0.1782,0.1831,0.181,0.1817,0.1837,0.1848,0.1851,0.1865,0.1865,0.1866,0.1874,0.187,0.187,0.1887,0.1921,0.187,0.187,0.1917,0.1919,0.1921,0.1998,0,0,0,0,0,0,0.1774,0.1781,0.179,0.181,0.1818,0.1854,0.1849,0.1852,0.1869,0.187,0.1875,0.1874,0.187,0.1887,0.1887,0.192,0.187,0.1916,0.1918,0.192,0.1994,0.2002,0.2009,0,0,0,0,0,0.1772,0.1786,0.179,0.1796,0.1829,0.1855,0.186,0.1872,0.187,0.1882,0.1889,0.1874,0.1902,0.1888,0.1888,0.1922,0.1915,0.1918,0.192,0.199,0.2001,0.2009,0,0,0,0,0,0,0.1755,0.1789,0.1794,0.1815,0.1837,0.1857,0.1872,0.1877,0.1893,0.1894,0.1888,0.1889,0.1917,0.1906,0.1891,0.1943,0.1907,0.191,0.196,0.1969,0.1977,0.1999,0.187,0,0,0,0,0,0.1757,0.178,0.1806,0.1822,0.1836,0.1854,0.1867,0.1877,0.1892,0.1899,0.1905,0.1913,0.1929,0.1937,0.1944,0.197,0.1976,0.1991,0.1999,0.2006,0.2023,0.2059,0.2072,0.1931,0.1931,0.1931,0,0,0.1753,0.1775,0.1786,0.1821,0.1839,0.1869,0.1862,0.1887,0.1919,0.1896,0.1938,0.1938,0.194,0.1976,0.1987,0.1971,0.2049,0.2009,0.2015,0.2029,0.2063,0.2077,0.2089,0.1933,0.1932,0.1932,0,0,0.1762,0.178,0.1806,0.183,0.1864,0.1881,0.189,0.192,0.1942,0.1977,0.1975,0.2,0.2013,0.2036,0.2045,0.2098,0.2087,0.2093,0.2155,0.219,0.2202,0.2213,0.2242,0.2255,0.21,0.21,0.2101,0,0.1757,0.1793,0.1815,0.1849,0.1875,0.1889,0.1924,0.1952,0.1984,0.2015,0.1998,0.2053,0.205,0.2111,0.2133,0.2119,0.2131,0.212,0.2202,0.2212,0.2222,0.225,0.2263,0.2104,0.2104,0.2104,0.2103,0,0.1786,0.1819,0.1837,0.1889,0.192,0.1949,0.1993,0.2029,0.2051,0.2081,0.2142,0.2148,0.2181,0.2187,0.2178,0.2251,0.2235,0.2205,0.2181,0.2241,0.2266,0.2279,0.211,0.2109,0.2108,0.2107,0,0,0.1764,0.1843,0.1849,0.1881,0.1945,0.1969,0.204,0.2107,0.2153,0.2192,0.2251,0.2296,0.2299,0.2309,0.2303,0.234,0.2418,0.2309,0.2309,0.2344,0.2497,0.246,0.2469,0.2401,0.2404,0.2406,0.2488,0,0.178,0.1844,0.1886,0.1946,0.1985,0.2035,0.2095,0.2161,0.2214,0.2272,0.2312,0.2352,0.2345,0.2354,0.2399,0.2405,0.2454,0.2398,0.2428,0.243,0.2394,0.2484,0.2285,0.234,0.25,0.2502,0.2504,0,0.1796,0.184,0.1903,0.1984,0.2006,0.2042,0.2142,0.2198,0.2297,0.2338,0.2407,0.2424,0.2497,0.2458,0.2548,0.2511,0.2523,0.2528,0.253,0.248,0.2416,0.2304,0.2356,0.2524,0.2523,0.2521,0.252,0,0.1767,0.1851,0.1899,0.1926,0.2019,0.206,0.211,0.2217,0.2285,0.2374,0.2426,0.2503,0.254,0.2578,0.2622,0.2579,0.2711,0.2641,0.2628,0.2625,0.2456,0.2433,0.2715,0.2714,0.2714,0.2714,0.2714,0,0.1768,0.1803,0.1883,0.1906,0.1963,0.2039,0.2116,0.2182,0.2295,0.2373,0.2446,0.2523,0.2573,0.2655,0.2664,0.2711,0.2753,0.2671,0.2657,0.2476,0.2456,0.2605,0.2591,0.2717,0.2716,0.2716,0.2715,0,0.1731,0.1783,0.1834,0.1923,0.1949,0.1986,0.2107,0.2162,0.2279,0.2382,0.2412,0.256,0.2649,0.2716,0.2784,0.2768,0.2802,0.2808,0.2599,0.256,0.2673,0.2662,0.2773,0.2773,0.2773,0.2773,0.2772,0,0.1716,0.1738,0.1823,0.1846,0.1882,0.1953,0.1998,0.2127,0.2192,0.2407,0.244,0.259,0.265,0.2771,0.2778,0.28,0.2839,0.263,0.2509,0.2711,0.2686,0.2675,0.2665,0.2312,0.2308,0.2305,0.2303,0,0.1673,0.17,0.1738,0.179,0.1828,0.1893,0.1968,0.2021,0.2174,0.2269,0.2396,0.2469,0.2606,0.2556,0.2632,0.2613,0.2601,0.2564,0.285,0.2331,0.2283,0.2256,0.226,0.2274,0.2277,0.2279,0.228,0.2282,0.1626,0.1633,0.1673,0.1721,0.1761,0.1805,0.1844,0.1924,0.2008,0.2129,0.2252,0.23,0.2373,0.2367,0.2336,0.2327,0.2471,0.2351,0.2357,0.2368,0.2303,0.2258,0.2231,0.2234,0.2236,0.2238,0.224,0,0.1576,0.1581,0.1604,0.1643,0.1655,0.1722,0.18,0.1818,0.1864,0.1966,0.2033,0.1925,0.1931,0.2016,0.1957,0.1972,0.1915,0.1895,0.1797,0.1829,0.1857,0.1761,0.1548,0.1545,0.1543,0.1541,0,0,0.1538,0.1531,0.1541,0.1522,0.1557,0.1587,0.1626,0.1644,0.1703,0.1684,0.1701,0.184,0.195,0.1714,0.1707,0.1616,0.1697,0.1557,0.2119,0.2035,0.2059,0.2139,0.2031,0,0,0,0,0]},{"header":{"parameterUnit":"m.s-1","parameterCategory":2,"la1":30.2991,"la2":30.254,"lo1":-89.0895,"lo2":-89.0444,"dy":0.0017,"dx":0.0017,"nx":28,"ny":28,"refTime":"2024-10-22T03:00:00:Z","depth":"2","parameterNumber":3,"parameterNumberName":"V-component_of_CURRENTS"},"data":[0,0,0,0,0,0,0,0,0,0,0,0,0,0,0,0,0,0,0,0,0,0,0,0,0,0,0,0,0,0,0,0,0,0,0,0,0,0,0,0,0,0,0,0,0,0,0,0,0,0,0,0,0,0,0,0,0,0,-0.01,-0.0101,0,-0.0143,-0.0144,-0.0144,-0.0185,-0.0186,-0.0186,-0.0186,-0.0252,-0.0253,-0.0255,0,0,0,0,0,0,0,0,0,0,0,0,0,-0.0093,-0.0093,-0.01,-0.0101,-0.0101,-0.0143,-0.0144,-0.0144,-0.0185,-0.0186,-0.0186,-0.0186,-0.0251,-0.0253,-0.0255,0,0,0,0,0,0,0,0,0,0,0,0,0,-0.0114,-0.0093,-0.01,-0.0125,-0.0128,-0.0143,-0.0144,-0.0145,-0.0185,-0.0186,-0.0186,-0.0187,-0.0251,-0.0253,-0.0255,-0.0258,0,0,-0.0261,-0.0262,0,0,0,0,0,0,0,0,-0.0112,-0.0114,-0.0121,-0.0123,-0.0126,-0.0158,-0.0165,-0.0183,-0.0185,-0.0165,-0.0186,-0.0187,-0.0221,-0.0225,-0.0235,-0.0261,-0.0264,-0.0262,-0.0263,-0.0264,-0.0264,0,0,0,0,0,0,0,-0.0111,-0.0113,-0.0119,-0.0121,-0.0124,-0.0147,-0.015,-0.0169,-0.0192,-0.0167,-0.017,-0.0171,-0.0223,-0.0232,-0.0237,-0.0265,-0.0262,-0.0263,-0.0265,-0.0266,-0.0317,-0.0317,0,0,0,0,0,0,-0.0099,-0.0111,-0.0118,-0.012,-0.0118,-0.0146,-0.015,-0.0149,-0.0191,-0.0197,-0.0171,-0.0173,-0.0229,-0.0234,-0.0239,-0.0263,-0.0264,-0.0266,-0.0267,-0.0317,-0.0317,-0.0317,0,0,0,0,0,0,-0.0098,-0.0099,-0.0116,-0.0115,-0.0119,-0.0145,-0.0144,-0.0149,-0.0161,-0.0193,-0.02,-0.0176,-0.0229,-0.0236,-0.0256,-0.0265,-0.0267,-0.0269,-0.0317,-0.0317,-0.0317,-0.0299,0,0,0,0,0,0,-0.0098,-0.0098,-0.0096,-0.0114,-0.0118,-0.0119,-0.0143,-0.0149,-0.016,-0.0163,-0.02,-0.0207,-0.023,-0.0253,-0.0258,-0.0268,-0.027,-0.0317,-0.0317,-0.0317,-0.03,-0.0299,-0.0298,0,0,0,0,0,-0.0098,-0.0086,-0.0096,-0.0097,-0.0113,-0.0119,-0.0123,-0.0145,-0.0159,-0.0159,-0.0187,-0.0206,-0.0258,-0.0254,-0.0261,-0.0272,-0.0316,-0.0317,-0.0317,-0.03,-0.0299,-0.0298,0,0,0,0,0,0,-0.0076,-0.009,-0.0101,-0.0093,-0.0104,-0.0125,-0.0126,-0.0142,-0.0164,-0.017,-0.0204,-0.0212,-0.0232,-0.0251,-0.0246,-0.0286,-0.0291,-0.0293,-0.0276,-0.0276,-0.0275,-0.0289,-0.0272,0,0,0,0,0,-0.0071,-0.007,-0.0084,-0.0078,-0.0082,-0.0105,-0.0111,-0.0125,-0.0145,-0.0156,-0.0183,-0.0213,-0.0237,-0.0255,-0.0275,-0.0296,-0.0312,-0.0308,-0.0307,-0.0306,-0.0321,-0.0345,-0.0348,-0.0318,-0.0318,-0.0318,0,0,-0.006,-0.0067,-0.0067,-0.0074,-0.0086,-0.0083,-0.011,-0.0115,-0.0121,-0.0159,-0.0178,-0.0206,-0.024,-0.0264,-0.0276,-0.0283,-0.032,-0.0306,-0.0305,-0.0322,-0.0345,-0.0348,-0.0351,-0.0318,-0.0318,-0.0318,0,0,-0.0035,-0.0045,-0.0036,-0.0042,-0.0054,-0.0066,-0.0065,-0.0088,-0.0108,-0.0128,-0.0158,-0.02,-0.0227,-0.0267,-0.0287,-0.0295,-0.0308,-0.029,-0.0307,-0.0329,-0.0332,-0.0334,-0.0343,-0.0346,-0.0297,-0.0297,-0.0297,0,-0.0024,-0.001,-0.0033,-0.0025,-0.0026,-0.0055,-0.0044,-0.0065,-0.0094,-0.0116,-0.0129,-0.0198,-0.0236,-0.0278,-0.0293,-0.0296,-0.0298,-0.0307,-0.0328,-0.0331,-0.0334,-0.0342,-0.0347,-0.0297,-0.0297,-0.0297,-0.0297,0,0.0013,0.0018,0.0026,0.0025,0.0017,0.0026,-0.0004,-0.0016,-0.0046,-0.0083,-0.0131,-0.0187,-0.0233,-0.0253,-0.0285,-0.0327,-0.0315,-0.0316,-0.033,-0.0336,-0.0344,-0.0349,-0.0295,-0.0296,-0.0296,-0.0296,0,0,0.0049,0.0052,0.0053,0.0063,0.0046,0.005,0.0035,0.0009,-0.0004,-0.006,-0.0083,-0.0174,-0.0219,-0.0247,-0.0288,-0.0333,-0.0369,-0.034,-0.0342,-0.0348,-0.0399,-0.0374,-0.0377,-0.0362,-0.0364,-0.0364,-0.0389,0,0.0085,0.0117,0.0101,0.0128,0.0142,0.0111,0.0101,0.0065,0.0019,-0.001,-0.0097,-0.0136,-0.0209,-0.023,-0.029,-0.0336,-0.0383,-0.0362,-0.0394,-0.0395,-0.0372,-0.0383,-0.0375,-0.0395,-0.0394,-0.0395,-0.0396,0,0.0126,0.0142,0.0174,0.0182,0.0184,0.0188,0.0169,0.0153,0.0087,0.0053,-0.002,-0.0078,-0.0164,-0.0209,-0.0323,-0.0297,-0.0361,-0.0407,-0.0408,-0.04,-0.038,-0.0392,-0.0404,-0.0404,-0.0403,-0.0403,-0.0402,0,0.017,0.0193,0.0223,0.0227,0.0228,0.0228,0.022,0.0162,0.0162,0.0089,0.0087,-0.0029,-0.0052,-0.0164,-0.0282,-0.0297,-0.0381,-0.0403,-0.0445,-0.0442,-0.0454,-0.045,-0.0493,-0.0493,-0.0493,-0.0492,-0.0492,0,0.022,0.0244,0.0248,0.0268,0.0302,0.0269,0.0286,0.0257,0.0232,0.0253,0.0119,0.0134,-0.004,-0.011,-0.0242,-0.0346,-0.0349,-0.0457,-0.0454,-0.0444,-0.044,-0.0467,-0.0464,-0.0493,-0.0493,-0.0493,-0.0493,0,0.0263,0.0268,0.0309,0.0319,0.0325,0.0344,0.0364,0.038,0.0335,0.0371,0.0362,0.0273,0.0183,0.001,-0.0143,-0.0263,-0.0386,-0.0424,-0.0395,-0.039,-0.0446,-0.0441,-0.0482,-0.0482,-0.0481,-0.0481,-0.0481,0,0.0291,0.0317,0.0353,0.0383,0.0391,0.0419,0.0448,0.0436,0.0471,0.0476,0.0519,0.0435,0.0387,0.016,-0.0066,-0.0284,-0.0327,-0.0406,-0.0458,-0.0455,-0.0448,-0.0445,-0.0441,-0.0461,-0.0461,-0.0461,-0.046,0,0.035,0.0359,0.0392,0.045,0.0494,0.0553,0.0598,0.0655,0.0667,0.0685,0.0716,0.0669,0.0465,0.024,-0.0048,-0.0194,-0.0378,-0.0403,-0.0408,-0.0457,-0.0436,-0.0428,-0.0426,-0.0457,-0.0457,-0.0458,-0.0458,-0.0458,0.0387,0.0429,0.0471,0.0526,0.0585,0.067,0.0728,0.0786,0.0854,0.0888,0.0866,0.079,0.0552,0.017,-0.0069,-0.0321,-0.0327,-0.0439,-0.0441,-0.0443,-0.0427,-0.0406,-0.0419,-0.0419,-0.0419,-0.0419,-0.0419,0,0.0436,0.0483,0.0544,0.0618,0.0688,0.0709,0.0822,0.0866,0.0947,0.0981,0.0964,0.0734,0.0479,0.0222,-0.0157,-0.0387,-0.0425,-0.0445,-0.046,-0.0461,-0.0463,-0.045,-0.0446,-0.0447,-0.0447,-0.0448,0,0,0.0465,0.0538,0.0574,0.0691,0.0744,0.0856,0.0924,0.0966,0.1002,0.1006,0.0969,0.0875,0.0559,0.0285,-0.0028,-0.0237,-0.0293,-0.0272,-0.0229,-0.0212,-0.0211,-0.0442,-0.042,0,0,0,0,0]}],[{"header":{"parameterUnit":"m.s-1","parameterCategory":2,"la1":30.2991,"la2":30.254,"lo1":-89.0895,"lo2":-89.0444,"dy":0.0017,"dx":0.0017,"nx":28,"ny":28,"refTime":"2024-10-22T03:00:00:Z","depth":"4","parameterNumber":2,"parameterNumberName":"U-component_of_CURRENTS"},"data":[0,0,0,0,0,0,0,0,0,0,0,0,0,0,0,0,0,0,0,0,0,0,0,0,0,0,0,0,0,0,0,0,0,0,0,0,0,0,0,0,0,0,0,0,0,0,0,0,0,0,0,0,0,0,0,0,0,0,0.11,0.1101,0,0.1153,0.1154,0.1154,0.1194,0.1194,0.1195,0.1195,0.1263,0.1264,0.1266,0,0,0,0,0,0,0,0,0,0,0,0,0,0.1027,0.1028,0.11,0.1101,0.1101,0.1153,0.1154,0.1154,0.1194,0.1194,0.1195,0.1196,0.1263,0.1264,0.1266,0,0,0,0,0,0,0,0,0,0,0,0,0,0.1066,0.1028,0.11,0.1128,0.1131,0.1153,0.1154,0.1155,0.1194,0.1194,0.1195,0.1196,0.1262,0.1264,0.1266,0.1266,0,0,0.1272,0.1273,0,0,0,0,0,0,0,0,0.1064,0.1069,0.1123,0.1126,0.113,0.1169,0.1153,0.1193,0.1194,0.1169,0.1195,0.1196,0.1233,0.1237,0.1244,0.1269,0.1272,0.1273,0.1274,0.1275,0.1275,0,0,0,0,0,0,0,0.1061,0.1066,0.112,0.1124,0.1128,0.1136,0.1143,0.116,0.1196,0.1171,0.1174,0.1182,0.1235,0.1242,0.1246,0.1273,0.1273,0.1274,0.1276,0.1277,0.137,0.1371,0,0,0,0,0,0,0.1056,0.1064,0.1118,0.1122,0.1099,0.1137,0.1144,0.1155,0.1196,0.1203,0.1181,0.1183,0.1238,0.1244,0.1249,0.1311,0.1275,0.1277,0.1278,0.1369,0.137,0.1372,0,0,0,0,0,0,0.1054,0.106,0.1116,0.1095,0.1102,0.1138,0.1149,0.1155,0.1189,0.1203,0.1211,0.1212,0.1239,0.1246,0.1289,0.1312,0.1278,0.128,0.1367,0.1369,0.1371,0.1398,0,0,0,0,0,0,0.1052,0.106,0.1078,0.1094,0.1103,0.1143,0.1149,0.1156,0.1192,0.1196,0.1232,0.1237,0.124,0.1285,0.1291,0.1314,0.1281,0.1366,0.1368,0.137,0.1395,0.14,0.1404,0,0,0,0,0,0.1049,0.1065,0.1078,0.1085,0.1123,0.1144,0.115,0.1175,0.1193,0.1209,0.1238,0.1237,0.1304,0.1288,0.1294,0.1319,0.1365,0.1367,0.137,0.1393,0.1399,0.1404,0,0,0,0,0,0,0.1041,0.1071,0.1086,0.111,0.1133,0.1151,0.1173,0.1191,0.1226,0.124,0.1253,0.126,0.1303,0.1311,0.1293,0.1353,0.1334,0.1338,0.135,0.1356,0.136,0.135,0.1283,0,0,0,0,0,0.1047,0.107,0.1094,0.1117,0.1131,0.1158,0.1176,0.1194,0.1221,0.1239,0.1263,0.1291,0.1315,0.1336,0.1353,0.139,0.1401,0.141,0.1415,0.1419,0.1416,0.1465,0.1473,0.1381,0.1381,0.1381,0,0,0.105,0.107,0.1084,0.1118,0.114,0.1161,0.1172,0.1205,0.1227,0.124,0.1286,0.1307,0.1327,0.1364,0.1385,0.1378,0.1451,0.1422,0.1425,0.142,0.1468,0.1477,0.1485,0.1382,0.1382,0.1382,0,0,0.1054,0.1087,0.1104,0.1126,0.1164,0.1181,0.1197,0.1231,0.1254,0.1294,0.131,0.1347,0.1386,0.1403,0.1416,0.1459,0.147,0.1473,0.1494,0.1542,0.155,0.1557,0.158,0.1588,0.148,0.148,0.148,0,0.1059,0.1083,0.1112,0.1132,0.1153,0.1193,0.1213,0.124,0.1284,0.1304,0.1314,0.1384,0.14,0.1446,0.1459,0.1469,0.1494,0.1469,0.1548,0.1555,0.1562,0.1583,0.1593,0.1481,0.1481,0.1481,0.1481,0,0.1065,0.1096,0.111,0.1149,0.1175,0.1202,0.1238,0.1272,0.1308,0.1332,0.1391,0.1421,0.1465,0.1477,0.148,0.154,0.1541,0.1544,0.1531,0.1572,0.1593,0.1602,0.1484,0.1483,0.1483,0.1482,0,0,0.1044,0.1103,0.111,0.1135,0.1189,0.1208,0.125,0.1294,0.1335,0.1378,0.1429,0.1467,0.15,0.1517,0.154,0.1576,0.1639,0.1584,0.1586,0.1601,0.1741,0.1644,0.1645,0.1668,0.167,0.1671,0.1734,0,0.1044,0.1081,0.1111,0.1154,0.118,0.1226,0.1265,0.1311,0.1359,0.142,0.146,0.1523,0.1513,0.1558,0.159,0.1634,0.1667,0.1621,0.1702,0.1704,0.1609,0.1653,0.1677,0.1741,0.1743,0.1745,0.1746,0,0.1034,0.1067,0.1104,0.1169,0.1185,0.122,0.1294,0.1337,0.1419,0.146,0.1524,0.1569,0.1636,0.1628,0.1711,0.1691,0.1715,0.1736,0.1739,0.1643,0.1625,0.1693,0.1762,0.1761,0.176,0.1759,0.1758,0,0.0998,0.1059,0.1092,0.1113,0.119,0.1222,0.1273,0.1352,0.1396,0.1507,0.1557,0.1637,0.1701,0.1745,0.1785,0.1768,0.1868,0.1851,0.178,0.1774,0.1829,0.1821,0.1906,0.1905,0.1905,0.1905,0.1905,0,0.0973,0.1003,0.1085,0.1103,0.1158,0.122,0.129,0.1349,0.1444,0.1507,0.1592,0.1651,0.1739,0.1801,0.1818,0.1826,0.19,0.1785,0.1788,0.1838,0.183,0.1835,0.1826,0.1907,0.1907,0.1907,0.1906,0,0.092,0.0973,0.1018,0.1108,0.1142,0.1185,0.1292,0.1341,0.1443,0.1531,0.1574,0.1686,0.177,0.1831,0.1913,0.1864,0.1886,0.187,0.1917,0.1922,0.1747,0.1739,0.1789,0.1786,0.1784,0.1782,0.178,0,0.089,0.091,0.1011,0.1046,0.1091,0.1169,0.1224,0.1331,0.1381,0.1536,0.1567,0.1692,0.1757,0.1786,0.1855,0.1885,0.1864,0.1856,0.1788,0.174,0.1738,0.1734,0.1729,0.1777,0.1776,0.1775,0.1775,0,0.0835,0.0882,0.0924,0.1004,0.1065,0.1123,0.1209,0.1235,0.1365,0.1462,0.1534,0.1588,0.1678,0.173,0.1773,0.1786,0.1849,0.183,0.1834,0.1771,0.1725,0.1725,0.1723,0.1767,0.1768,0.1769,0.1769,0,0.0798,0.0819,0.0891,0.0952,0.1026,0.1069,0.1115,0.1183,0.1245,0.1405,0.1427,0.1559,0.1664,0.168,0.1717,0.1728,0.1697,0.1633,0.1646,0.1656,0.1583,0.1504,0.1484,0,0,0,0,0,0.0755,0.0787,0.0839,0.0905,0.0971,0.1019,0.1106,0.1153,0.1273,0.1291,0.1354,0.1432,0.15,0.156,0.1546,0.1659,0.1702,0.1634,0.1634,0.1721,0.1731,0.1657,0,0,0,0,0,0,0.0734,0.0783,0.082,0.0858,0.0892,0.0958,0.1011,0.1084,0.1094,0.1218,0.1259,0.1352,0.1433,0.1501,0.1523,0.1542,0.1513,0.171,0.1707,0.1716,0.1725,0.1732,0.166,0,0,0,0,0]},{"header":{"parameterUnit":"m.s-1","parameterCategory":2,"la1":30.2991,"la2":30.254,"lo1":-89.0895,"lo2":-89.0444,"dy":0.0017,"dx":0.0017,"nx":28,"ny":28,"refTime":"2024-10-22T03:00:00:Z","depth":"4","parameterNumber":3,"parameterNumberName":"V-component_of_CURRENTS"},"data":[0,0,0,0,0,0,0,0,0,0,0,0,0,0,0,0,0,0,0,0,0,0,0,0,0,0,0,0,0,0,0,0,0,0,0,0,0,0,0,0,0,0,0,0,0,0,0,0,0,0,0,0,0,0,0,0,0,0,0.009,0.009,0,0.0058,0.0058,0.0057,0.0032,0.0031,0.0031,0.0031,-0.0036,-0.0037,-0.0039,0,0,0,0,0,0,0,0,0,0,0,0,0,0.0105,0.0105,0.009,0.009,0.009,0.0058,0.0058,0.0057,0.0032,0.0031,0.0031,0.0031,-0.0035,-0.0037,-0.0039,0,0,0,0,0,0,0,0,0,0,0,0,0,0.0087,0.0105,0.009,0.0074,0.0072,0.0059,0.0058,0.0057,0.0032,0.0031,0.0031,0.0031,-0.0035,-0.0037,-0.0039,-0.0048,0,0,-0.0047,-0.0048,0,0,0,0,0,0,0,0,0.0089,0.0087,0.0076,0.0075,0.0073,0.0049,0.0038,0.002,0.0032,0.0046,0.0031,0.0031,-0.001,-0.0014,-0.002,-0.0052,-0.0054,-0.0047,-0.0048,-0.0049,-0.005,0,0,0,0,0,0,0,0.009,0.0088,0.0077,0.0076,0.0074,0.0059,0.0057,0.0035,0.0019,0.0045,0.0043,0.0041,-0.0011,-0.0018,-0.0022,-0.0055,-0.0047,-0.0049,-0.005,-0.0051,-0.0095,-0.0094,0,0,0,0,0,0,0.0097,0.0089,0.0078,0.0076,0.0081,0.006,0.0057,0.0056,0.002,0.0014,0.0041,0.004,-0.0014,-0.0019,-0.0025,-0.0014,-0.0049,-0.0052,-0.0053,-0.0095,-0.0095,-0.0094,0,0,0,0,0,0,0.0097,0.0096,0.0079,0.0082,0.0079,0.006,0.006,0.0056,0.0049,0.0018,0.0011,0.0038,-0.0014,-0.0021,-0.0037,-0.0017,-0.0053,-0.0055,-0.0095,-0.0095,-0.0094,-0.0007,0,0,0,0,0,0,0.0098,0.0097,0.0099,0.0083,0.0079,0.0079,0.006,0.0056,0.0048,0.0046,0.0013,0.0006,-0.0015,-0.0033,-0.004,-0.0021,-0.0057,-0.0096,-0.0095,-0.0095,-0.001,-0.0004,0.0002,0,0,0,0,0,0.0099,0.0107,0.01,0.0098,0.0083,0.0079,0.0076,0.0061,0.0049,0.0052,0.0029,0.0007,-0.0035,-0.0035,-0.0042,-0.0024,-0.0096,-0.0095,-0.0095,-0.0013,-0.0005,0.0002,0,0,0,0,0,0,0.0114,0.0105,0.0096,0.0101,0.0093,0.0075,0.0076,0.0063,0.0048,0.0043,0.0011,0.0004,-0.0004,-0.0031,-0.003,-0.0038,-0.0069,-0.007,-0.0005,0.0003,0.0009,0.004,-0.0059,0,0,0,0,0,0.0119,0.0123,0.011,0.0114,0.0112,0.0093,0.0088,0.0078,0.0063,0.0055,0.0033,0.0008,-0.0007,-0.0015,-0.0038,-0.004,-0.0071,-0.0036,-0.0029,-0.0024,-0.0005,-0.0038,-0.0033,-0.0092,-0.0092,-0.0092,0,0,0.0126,0.0121,0.0123,0.0118,0.0109,0.0118,0.009,0.0087,0.0099,0.005,0.0054,0.0026,-0.0005,-0.0005,-0.0011,-0.0023,-0.0026,-0.0023,-0.0017,-0.0002,-0.0037,-0.0031,-0.0026,-0.0092,-0.0092,-0.0092,0,0,0.0149,0.0138,0.0152,0.0151,0.0144,0.0134,0.0136,0.012,0.0118,0.0115,0.0087,0.0077,0.0043,0.004,0.003,0.0055,0.0005,0.0036,0.01,0.0067,0.0072,0.0076,0.0038,0.0038,0.0044,0.0044,0.0044,0,0.0157,0.0174,0.0156,0.0171,0.0178,0.0146,0.0168,0.0162,0.0145,0.0151,0.0125,0.0098,0.0072,0.0089,0.0102,0.0073,0.0037,0.0078,0.0077,0.0081,0.0083,0.0043,0.0042,0.0049,0.0048,0.0048,0.0047,0,0.0194,0.0208,0.0216,0.0229,0.0232,0.0243,0.0236,0.0238,0.0224,0.0218,0.0221,0.0186,0.0173,0.0163,0.0144,0.0157,0.0118,0.0087,0.0065,0.0095,0.005,0.0048,0.0055,0.0053,0.0052,0.0051,0,0,0.0214,0.0239,0.0243,0.0262,0.0265,0.0272,0.0295,0.0311,0.0327,0.0309,0.0328,0.0316,0.0289,0.0277,0.0245,0.023,0.0219,0.0176,0.0172,0.015,0.0136,0.0087,0.0079,0.018,0.018,0.018,0.0095,0,0.0249,0.0296,0.0298,0.0342,0.0365,0.0355,0.0382,0.0391,0.0382,0.0389,0.0369,0.0363,0.0334,0.0321,0.0307,0.0231,0.0216,0.0244,0.01,0.0097,0.0059,0.0076,0.0181,0.0093,0.0092,0.0092,0.0091,0,0.0287,0.0314,0.0367,0.0406,0.0416,0.0436,0.0467,0.0487,0.0493,0.0485,0.0481,0.0444,0.0432,0.0388,0.0305,0.0317,0.0246,0.019,0.0184,0.0111,0.0043,0.0055,0.0086,0.0086,0.0087,0.0087,0.0088,0,0.0314,0.0362,0.0407,0.042,0.0458,0.0483,0.0503,0.0519,0.0539,0.0541,0.0534,0.0509,0.0474,0.0402,0.0286,0.0288,0.0173,0.0152,0.0049,0.0043,0.0075,0.0071,0.0104,0.0104,0.0104,0.0104,0.0105,0,0.0351,0.0387,0.0424,0.0449,0.0502,0.0518,0.0568,0.058,0.0596,0.0611,0.0582,0.0563,0.0472,0.0389,0.0298,0.0158,0.0175,0.0069,0.0024,0.011,0.0112,0.0072,0.0069,0.0101,0.0102,0.0102,0.0103,0,0.0374,0.0399,0.0451,0.05,0.0517,0.0554,0.0603,0.0632,0.0641,0.0652,0.065,0.0592,0.0477,0.0373,0.0232,0.0156,0.0038,-0.0015,0.0083,0.0042,-0.007,-0.0067,-0.0127,-0.0129,-0.0131,-0.0133,-0.0134,0,0.039,0.042,0.0482,0.0508,0.0531,0.0585,0.062,0.0653,0.067,0.0657,0.0652,0.0559,0.05,0.0275,0.0164,-0.0012,-0.0037,-0.0093,-0.0059,-0.0052,-0.0091,-0.0085,-0.008,-0.0137,-0.0138,-0.0138,-0.0139,0,0.0413,0.0432,0.0471,0.0527,0.0567,0.0619,0.0661,0.0675,0.0697,0.0705,0.0636,0.0532,0.0396,0.0247,0.0103,-0.0019,-0.0049,-0.0114,-0.011,-0.0078,-0.0066,-0.0101,-0.0093,-0.0146,-0.0145,-0.0144,-0.0144,0,0.0414,0.0441,0.0483,0.0529,0.0585,0.0623,0.0656,0.0661,0.0678,0.0659,0.0627,0.0503,0.0437,0.024,0.0107,-0.0019,-0.0043,-0.0069,-0.0068,-0.0062,-0.0017,0.001,-0.0077,0,0,0,0,0,0.0404,0.0426,0.0478,0.0523,0.0582,0.061,0.0664,0.0689,0.0703,0.0654,0.0643,0.0516,0.0316,0.0234,0.0097,0.0069,-0.0065,-0.0095,-0.0095,-0.0183,-0.0175,-0.0138,0,0,0,0,0,0,0.0388,0.0432,0.0466,0.0508,0.0537,0.0594,0.063,0.0645,0.0617,0.0616,0.0511,0.0472,0.028,0.0385,0.0088,0.0051,0.0031,-0.0182,-0.0185,-0.0188,-0.0181,-0.0174,-0.0133,0,0,0,0,0]}]]